sat.trackr.live / text

‹ back to catalog

GEESAT-6 01

NORAD 65713 · 2025-214B

PAYLOAD ACTIVE UNKNOWN

§ Identity

Operator
Country
PRC
Launch date
2025-09-24
Launch site
YSLA
Launch vehicle
Mass (kg)
RCS (m²)

External: N2YO · Heavens-Above · Gunter

§ Orbital elements

Epoch: 2026-09-20T21:55:34.881888Z

Period
97.05 min
Inclination
49.9855°
Eccentricity
0.0011957
Mean motion
14.83699209 rev/d
Perigee alt
609.3 km
Apogee alt
626.0 km
Semi-major
6,995.8 km
B*
1.2484e-4
RAAN
224.9933°
Arg perigee
240.2487°
Mean anomaly
119.7262°
Rev number
5,371

§ Raw data

GEESAT-6 011 65713U 25214B   26263.91359817  .00000815  00000+0  12484-3 0  99932 65713  49.9855 224.9933 0011957 240.2487 119.7262 14.83699209 53711

JSON: /api/v1/satellites/65713 · /tle

For live sub-satellite position, see the globe view (requires WebGL).

§ Visibility from observer

Set your observer location to see the next 7 days of passes ≥ 10°. The values pass through the URL so the page stays shareable.

No JS? Fill the form by hand. The geolocation button needs JavaScript.